Change the Weather History Date:

Tuesday, October 9, 2012

  Actual Average Record
Temperature  
Mean Temperature 47 °F 50 °F  
Max Temperature 54 °F 60 °F 81 °F (1905)
Min Temperature 39 °F 40 °F 23 °F (1895)
Degree Days  
Heating Degree Days 18 16  
Month to date heating degree days 140 127  
Since 1 July heating degree days 382 397  
Cooling Degree Days 0 0  
Month to date cooling degree days 0 0  
Year to date cooling degree days 786 395  
Moisture  
Dew Point 40 °F    
Average Humidity 70    
Maximum Humidity 93    
Minimum Humidity 46    
Precipitation  
Precipitation 0.46 in 0.08 in 1.46 in (1939)
Month to date precipitation 0.46 0.75  
Year to date precipitation 23.48 24.19  
Snow  
Snow 0.00 in 0.00 in 0.10 in (1925)
Month to date snowfall 0.0 0.0  
Since 1 July snowfall 0.0 0.0  
Since 1 September snowfall 0.0 0.0  
Snow Depth 0.00 in    
Sea Level Pressure  
Sea Level Pressure 29.79 in    
Wind  
Wind Speed 11 mph (SW)    
Max Wind Speed 24 mph    
Max Gust Speed 30 mph    
Visibility 8 miles    
Events Rain    
T = Trace of Precipitation, MM = Missing Value Source: NWS Daily Summary

Daily Weather History Graph

Daily Weather History Graph

Search for Another Location

Airport or City:

Trip Planner

Search our weather history database for the weather conditions in past years. The results will help you decide how hot, cold, wet, or windy it might be!

Date:

Astronomy

Oct. 09, 2012 Rise Set
Actual Time 7:00 AM CDT 6:17 PM CDT
Civil Twilight 6:31 AM CDT 6:46 PM CDT
Nautical Twilight 5:57 AM CDT 7:20 PM CDT
Astronomical Twilight 5:24 AM CDT 7:54 PM CDT
Moon 12:23 AM CDT (10/9) 2:57 PM CDT (10/9)
Length of Visible Light 12h 15m
Length of Day
11h 17m
Last Quarter, 36% of the Moon is Illuminated
Oct 9
Last Quarter
Oct 15
New
Oct 21
First Quarter
Oct 29
Full
Nov 6
Last Quarter

Hourly Weather History & Observations

Time (CDT) Temp. Windchill Dew Point Humidity Pressure Visibility Wind Dir Wind Speed Gust Speed Precip Events Conditions
12:53 AM 54.0 °F - 33.1 °F 45% 29.79 in 10.0 mi SSW 17.3 mph 31.1 mph N/A   Partly Cloudy
1:53 AM 54.0 °F - 33.1 °F 45% 29.79 in 10.0 mi SSW 15.0 mph 24.2 mph N/A   Partly Cloudy
3:53 AM 54.0 °F - 33.1 °F 45% 29.78 in 10.0 mi SSW 15.0 mph 25.3 mph N/A   Overcast
4:53 AM 53.1 °F - 35.1 °F 50% 29.79 in 10.0 mi SSW 13.8 mph - 0.00 in Rain Light Rain
5:53 AM 51.1 °F - 37.0 °F 59% 29.79 in 10.0 mi SSW 10.4 mph - 0.00 in Rain Light Rain
6:53 AM 51.1 °F - 37.9 °F 61% 29.80 in 10.0 mi SSW 9.2 mph - 0.00 in   Overcast
7:53 AM 48.9 °F - 39.9 °F 71% 29.82 in 7.0 mi SSW 12.7 mph - 0.00 in Rain Light Rain
8:53 AM 48.0 °F - 43.0 °F 83% 29.82 in 7.0 mi SSW 5.8 mph - 0.04 in Rain Light Rain
9:53 AM 46.9 °F - 43.0 °F 86% 29.81 in 7.0 mi SSW 6.9 mph - 0.04 in Rain Light Rain
10:53 AM 46.9 °F - 43.0 °F 86% 29.79 in 10.0 mi SSW 9.2 mph - 0.06 in Rain Light Rain
11:53 AM 46.9 °F - 43.0 °F 86% 29.77 in 10.0 mi SW 5.8 mph - 0.02 in Rain Light Rain
12:53 PM 48.9 °F - 45.0 °F 86% 29.74 in 7.0 mi South 5.8 mph - 0.00 in Rain Light Rain
1:24 PM 48.2 °F - 44.6 °F 87% 29.73 in 4.0 mi SSW 10.4 mph - 0.01 in Rain Light Rain
1:53 PM 48.9 °F - 44.1 °F 83% 29.75 in 4.0 mi SW 10.4 mph 19.6 mph 0.04 in Rain Light Rain
2:36 PM 48.2 °F - 44.6 °F 87% 29.73 in 4.0 mi SW 11.5 mph 20.7 mph 0.04 in Rain Rain
2:53 PM 48.9 °F - 45.0 °F 86% 29.74 in 5.0 mi SW 9.2 mph - 0.06 in Rain Rain
3:53 PM 48.0 °F - 46.0 °F 93% 29.75 in 3.0 mi SSW 9.2 mph - 0.08 in Rain Light Rain
4:29 PM 46.4 °F 40.1 °F 42.8 °F 87% 29.77 in 6.0 mi West 15.0 mph - 0.06 in Rain Light Rain
4:44 PM 44.6 °F 37.2 °F 42.8 °F 93% 29.77 in 7.0 mi West 17.3 mph - 0.07 in Rain Light Rain
4:53 PM 45.0 °F 37.6 °F 41.0 °F 86% 29.79 in 6.0 mi West 17.3 mph - 0.07 in Rain Light Rain
5:18 PM 44.6 °F 37.2 °F 39.2 °F 81% 29.79 in 5.0 mi WNW 17.3 mph 21.9 mph 0.02 in Rain Light Rain
5:29 PM 44.6 °F 38.4 °F 39.2 °F 81% 29.80 in 6.0 mi West 12.7 mph - 0.03 in Rain Light Rain
5:53 PM 43.0 °F 36.4 °F 39.0 °F 86% 29.81 in 6.0 mi West 12.7 mph - 0.04 in Rain Light Rain
6:53 PM 43.0 °F 38.8 °F 39.0 °F 86% 29.81 in 10.0 mi WSW 6.9 mph - 0.01 in   Overcast
7:53 PM 43.0 °F 38.2 °F 37.9 °F 82% 29.82 in 10.0 mi WSW 8.1 mph - N/A   Clear
8:53 PM 43.0 °F 36.8 °F 37.9 °F 82% 29.82 in 10.0 mi WSW 11.5 mph - N/A   Mostly Cloudy
9:53 PM 43.0 °F 36.4 °F 37.0 °F 80% 29.81 in 10.0 mi West 12.7 mph - N/A   Overcast
10:53 PM 42.1 °F 35.7 °F 37.9 °F 85% 29.82 in 10.0 mi West 11.5 mph - N/A   Clear
11:53 PM 41.0 °F 35.8 °F 37.0 °F 86% 29.83 in 10.0 mi West 8.1 mph - N/A   Clear